Location: Alafon
(8.4500°N, 4.2333°E)
Time: 15:50:05
(UTC+00:00)

SR - Pass Details

Date: 02 August 2021
Orbit: 581 x 874 km, 66.7° (Epoch: 18 September)

Event Time Altitude Azimuth Distance (km) Brightness Sun altitude
Rises 15:07:38 0° 353° (N) 2,875 ? 41.0°
Reaches altitude 10° 15:10:06 10° 3° (N) 1,939 ? 40.4°
Maximum altitude 15:14:01 33° 68° (ENE) 985 ? 39.5°
Drops below altitude 10° 15:17:49 10° 133° (SE) 1,889 ? 38.6°
Sets 15:20:11 0° 143° (SE) 2,789 ? 38.0°
